This is the latest recevied weather packets stored in our database for station/object KB3YCK-2. If no packets are shown the sender has not sent any weather packets the latest 10 day(s).
| Time | Temp. | Humidity | Pressure | Rain* | Wind** | Luminosity | Snow |
|---|---|---|---|---|---|---|---|
| 1778188812 | 17.78° C | 58% | 1008.9 hPa | 0 mm | - | 84 W/m² | - |
| 1778178304 | 17.22° C | 65% | 1009.8 hPa | 0 mm | - | 735 W/m² | - |
| 1778177406 | 17.22° C | 68% | 1009.7 hPa | 0 mm | - | 868 W/m² | - |
| 1778176805 | 16.67° C | 69% | 1009.7 hPa | 0 mm | - | 875 W/m² | - |
| 1778173207 | 16.11° C | 65% | 1010.7 hPa | 0 mm | - | 900 W/m² | - |
| 1778171706 | 15.56° C | 67% | 1011.1 hPa | 0 mm | - | 900 W/m² | - |
| 1778169906 | 15° C | 72% | 1011.5 hPa | 0 mm | - | 902 W/m² | - |
| 1778169003 | 14.44° C | 75% | 1011.4 hPa | 0 mm | - | 879 W/m² | - |
| 1778167823 | 13.33° C | 75% | 1011.8 hPa | 0 mm | - | 513 W/m² | - |
| 1778165410 | 12.78° C | 75% | 1012.5 hPa | 0 mm | - | 424 W/m² | - |
| 1778163907 | 12.22° C | 81% | 1012.8 hPa | 0 mm | - | 385 W/m² | - |
| 1778163002 | 11.67° C | 84% | 1012.8 hPa | 0 mm | - | 359 W/m² | - |
| 1778162705 | 11.67° C | 84% | 1012.8 hPa | 0 mm | - | 346 W/m² | - |
| 1778159998 | 10° C | 86% | 1012.9 hPa | 0 mm | - | 195 W/m² | - |
| 1778159703 | 10° C | 87% | 1012.8 hPa | 0 mm | - | 176 W/m² | - |
| 1778155504 | 10° C | 89% | 1012.6 hPa | 0 mm | - | 54 W/m² | - |
| 1778154005 | 10° C | 89% | 1012.4 hPa | 0 mm | - | 40 W/m² | - |
| 1778152203 | 10° C | 90% | 1012.3 hPa | 0 mm | - | 21 W/m² | - |
| 1778151306 | 10° C | 89% | 1012 hPa | 0 mm | - | 18 W/m² | - |
| 1778145907 | 10° C | 89% | 1011.2 hPa | 0 mm | - | 0 W/m² | - |
| 1778145007 | 10° C | 89% | 1011.2 hPa | 0.25 mm | - | 0 W/m² | - |
| 1778143806 | 10° C | 89% | 1010.7 hPa | 0.25 mm | - | 0 W/m² | - |
| 1778143524 | 10° C | 89% | 1010.6 hPa | 0.25 mm | - | 0 W/m² | - |
| 1778139908 | 10° C | 89% | 1010.8 hPa | 0.76 mm | - | 0 W/m² | - |
| 1778136316 | 10.56° C | 89% | 1011.4 hPa | 1.02 mm | - | 0 W/m² | - |
* Rain latest hour (hover to see other rain measurements)
** Current wind speed in m/s (hover to see current wind gust speed)